Tracking 20721 objects as of 1-Jun-2020
HD Live streaming from Space Station
objects crossing your sky now

THORAD AGENA D DEB

Track THORAD AGENA D DEB now!
10-day predictions


NORAD ID: 4218
Int'l Code: 1969-082CH
Perigee: 711.5 km
Apogee: 769.7 km
Inclination: 70.1 °
Period: 99.5 minutes
Semi major axis: 7111 km
RCS: 0.0624 m2 (small)
Launch date: September 30, 1969
Source: United States (US)
Launch site: AIR FORCE WESTERN TEST RANGE (AFWTR)

Note: This is SATELLITE DEBRIS
aabbcc
Your satellite tracking list
Your tracking list is empty




NASA's NSSDC Master Catalog

Two Line Element Set (TLE):
1  4218U 69082CH  20151.90284751 +.00000261 +00000-0 +86724-4 0  9995
2  4218 070.1012 337.4058 0040874 244.8389 114.8503 14.47608044638275
Source of the keplerian elements: AFSPC